FW2486 Weather Reports


time (UTC)temp
F
wind
direction
speed
knots
gust
knots
rain 1hr
in
rain 24hr
in
rain mn
in
humidity
%
barometer
mb
20260503203033 85 316 1.7 7.8 0.00 0.00 0.00 27 1015.3
20260503201531 84 65 3.5 9.6 0.00 0.00 0.00 31 1015.3
20260503194532 81 327 8.7 18.2 0.00 0.00 0.00 36 1015.7
20260503193033 80 331 7.0 18.2 0.00 0.00 0.00 38 1015.9
20260503191535 79 352 7.0 15.6 0.00 0.00 0.00 38 1016.0
20260503190029 78 342 6.1 11.3 0.00 0.00 0.00 39 1016.2
20260503183153 76 342 7.0 18.2 0.00 0.00 0.00 41 1016.4
20260503181535 75 340 6.1 13.9 0.00 0.00 0.00 41 1016.6
20260503180036 74 338 7.8 15.6 0.00 0.00 0.00 44 1016.7
20260503174544 72 330 6.1 16.5 0.00 0.00 0.00 47 1016.9
20260503173037 70 342 3.5 9.6 0.00 0.00 0.00 53 1017.1
20260503171535 69 349 2.6 6.1 0.00 0.00 0.00 57 1017.2
20260503081532 51 121 2.6 3.5 0.00 0.00 0.00 87 1017.6
20260503080107 51 146 2.6 3.5 0.00 0.00 0.00 86 1017.6
20260503071535 54 156 2.6 3.5 0.00 0.00 0.00 84 1017.6
20260503054643 57 140 1.7 3.5 0.00 0.00 0.00 79 1017.3
20260503053035 57 156 0.0 1.7 0.00 0.00 0.00 79 1017.3
20260503050040 58 221 0.9 3.5 0.00 0.00 0.00 79 1017.2
20260503044530 58 163 1.7 3.5 0.00 0.00 0.00 78 1017.2
20260503043033 59 152 0.0 3.5 0.00 0.00 0.00 77 1017.2
20260503041645 60 154 0.9 3.5 0.00 0.00 0.00 77 1016.9
20260503040044 61 112 0.0 0.9 0.00 0.00 0.00 75 1016.7
20260503034538 62 137 0.0 2.6 0.00 0.00 0.00 72 1016.4
20260503033035 63 193 1.7 3.5 0.00 0.00 0.00 72 1016.0
20260503031535 64 179 1.7 3.5 0.00 0.00 0.00 72 1015.7
20260503030037 66 157 0.0 5.2 0.00 0.00 0.00 71 1015.5
20260503024652 67 179 0.9 3.5 0.00 0.00 0.00 71 1015.2
20260503023036 68 247 0.0 2.6 0.00 0.00 0.00 70 1015.1
20260503021535 69 247 0.0 3.5 0.00 0.00 0.00 66 1015.1
20260503014534 73 247 0.0 0.9 0.00 0.00 0.00 56 1014.9
20260503013033 75 247 0.0 3.5 0.00 0.00 0.00 51 1015.0
20260503011608 75 247 0.9 2.6 0.00 0.00 0.00 50 1015.0
20260503003032 79 181 0.9 4.3 0.00 0.00 0.00 38 1014.9
20260503001532 80 97 0.9 7.0 0.00 0.00 0.00 35 1014.9
20260503000037 80 30 1.7 7.0 0.00 0.00 0.00 34 1015.1
20260502234536 81 112 2.6 8.7 0.00 0.00 0.00 33 1015.2
20260502233037 81 108 4.3 13.9 0.00 0.00 0.00 33 1015.3
20260502224533 80 351 4.3 11.3 0.00 0.00 0.00 39 1015.8
20260502223031 79 329 2.6 6.1 0.00 0.00 0.00 40 1016.0
20260502220106 79 346 3.5 7.0 0.00 0.00 0.00 41 1016.3
20260502214606 77 334 3.5 7.8 0.00 0.00 0.00 44 1016.5
20260502213032 76 326 5.2 12.2 0.00 0.00 0.00 46 1016.7
20260502211535 74 329 7.8 17.4 0.00 0.00 0.00 50 1016.9
20260502210030 71 326 7.8 13.9 0.00 0.00 0.00 58 1017.0
20260502204535 72 322 4.3 9.6 0.00 0.00 0.00 58 1017.2